Regional Weather Roundup
Issued by NWS Mt. Holly, NJ

Home | Current Version | Previous Version | Text Only | Print | Product List | Glossary On
Versions: 1 2 3 4 5 6 7 8 9 10 11 12 13 14 15 16 17 18 19 20 21 22 23 24 25 26 27 28 29 30 31 32 33 34 35 36 37 38 39 40 41 42 43 44 45 46 47 48 49 50
000
ASUS41 KPHI 011610
RWRPHI

REGIONAL WEATHER ROUNDUP
NATIONAL WEATHER SERVICE MOUNT HOLLY NJ
1200 PM EDT WED OCT 01 2014

NOTE:  "FAIR" INDICATES FEW OR NO CLOUDS BELOW 12,000 FEET WITH NO
SIGNIFICANT WEATHER AND/OR OBSTRUCTIONS TO VISIBILITY.

 * = STATION DOES NOT REPORT PRECIPITATION (E.G. RAIN, SNOW, ETC.)
        OR FOG.

NJZ015>026-011700-
SOUTHERN NEW JERSEY

CITY           SKY/WX    TMP DP  RH WIND       PRES   REMARKS
POMONA         CLOUDY    65  60  84 N10       30.03S
RIO GRANDE*    CLOUDY    68  57  68 N13       30.03S
MILLVILLE      CLOUDY    67  58  72 NE8       30.03F
WRIGHTSTOWN    CLOUDY    64  59  82 NE9       30.03S
MOUNT HOLLY    CLOUDY    66  57  72 NE6       30.04S
TRENTON        CLOUDY    66  56  70 NE7       30.05R

$$
NJZ001>014-011700-
NORTHERN NEW JERSEY

CITY           SKY/WX    TMP DP  RH WIND       PRES   REMARKS
SUSSEX         CLOUDY    64  57  78 NE9       30.08S
ANDOVER*         N/A     62  56  80 VRB3      30.08S
MORRISTOWN     DRIZZLE   63  61  94 NE5       30.07S
NEWARK         LGT RAIN  64  59  82 N13       30.05F
TETERBORO      LGT RAIN  64  56  75 N7        30.05S
CALDWELL       CLOUDY    61  58  90 NE5       30.07S
SOMERVILLE     CLOUDY    65  56  72 NE9       30.05R
ALLAIRE*       CLOUDY    63  57  82 N7        30.04S
TOMS RIVER*    CLOUDY    63  61  94 N5        30.04F

$$
PAZ043-044-047-054-055-060>062-066>071-011700-
EASTERN PENNSYLVANIA

CITY           SKY/WX    TMP DP  RH WIND       PRES   REMARKS
PHILADELPHIA   PTSUNNY   71  57  61 E10       30.05S
NORTH PHILA    CLOUDY    70  55  59 NE8       30.06S
BLUE BELL      PTSUNNY   70  57  64 NE6       30.05S
DOYLESTOWN     CLOUDY    68  56  65 NE8       30.05F
QUAKERTOWN*    PTSUNNY   70  55  60 N5        30.07S
POTTSTOWN      PTSUNNY   68  57  68 N3        30.07S
LANCASTER      CLOUDY    65  58  78 NE5       30.06F
COATESVILLE    MOSUNNY   64  57  77 N6        30.07S
READING        PTSUNNY   68  56  65 NE6       30.06S
ALLENTOWN      MOSUNNY   72  54  53 NE7       30.06F
MOUNT POCONO   CLOUDY    62  53  72 NE8       30.09S
HAZLETON       CLOUDY    63  55  77 CALM      30.12S
WILKES BARRE   CLOUDY    68  55  63 NW3       30.07S

$$
DEZALL-MDZ008-012-015-019-020-011700-
DELAWARE AND EASTERN MARYLAND

CITY           SKY/WX    TMP DP  RH WIND       PRES   REMARKS
WILMINGTON     PTSUNNY   70  57  63 NE9       30.05F
DOVER          PTSUNNY   68  59  73 NE8       30.01F
GEORGETOWN     CLOUDY    69  60  73 NE12      30.02F
EASTON         PTSUNNY   72  63  73 E8        30.06S
PATUXENT       MOSUNNY   70  60  70 VRB5      30.03S
OCEAN CITY     CLOUDY    70  62  76 NE10      30.01S
WALLOPS ISLAND CLOUDY    72  64  76 E16       30.01S
CAMBRIDGE      CLOUDY    72  63  73 N6        30.02S
SALISBURY      PTSUNNY   74  62  66 NE9       30.01S

$$
PAZ001-021-NYZ056-072-MDZ011-DCZ001-011700-
OTHER NEARBY LOCATIONS

CITY           SKY/WX    TMP DP  RH WIND       PRES   REMARKS
HARRISBURG     CLOUDY    65  59  81 CALM      30.06S FOG
STATE COLLEGE  CLOUDY    61  57  88 CALM      30.09R FOG
WILLIAMSPORT   CLOUDY    66  58  75 SE3       30.06F
BINGHAMTON     CLOUDY    63  58  83 E6        30.09S
NEW YORK CITY  CLOUDY    63  57  81 VRB6      30.08S
BALTIMORE      PTSUNNY   69  60  73 NE7       30.04S
WASHINGTON DC  CLOUDY    70  60  70 E3        30.05S

$$



USA.gov is the U.S. government's official web portal to all federal, state and local government web resources and services.